[[{"header":{"parameterUnit":"m.s-1","parameterCategory":2,"la1":30.2992,"la2":30.254,"lo1":-89.0895,"lo2":-89.0443,"dy":0.0025,"dx":0.0025,"nx":19,"ny":19,"refTime":"2026-05-10T21:00:00:Z","depth":"0","parameterNumber":2,"parameterNumberName":"U-component_of_CURRENTS"},"data":[0,0,0,-0.218,-0.2181,-0.2254,-0.2254,-0.2263,-0.2263,0,0,0,0,0,0,0,0,0,0,0,-0.2156,-0.2157,-0.2179,-0.2181,-0.2254,-0.2254,-0.2263,-0.2263,0,0,0,0,0,0,0,0,0,0,0,-0.2156,-0.2157,-0.2157,-0.2182,-0.2254,-0.2254,-0.2263,-0.2228,0,0,0,0,0,0,0,0,0,0,-0.2168,-0.2153,-0.2156,-0.2157,-0.2182,-0.2254,-0.2254,-0.2227,-0.223,-0.2206,0,-0.2226,0,-0.2243,-0.2262,-0.2261,0,0,0,-0.2178,-0.2151,-0.2177,-0.2157,-0.2183,-0.2254,-0.222,-0.223,-0.2233,-0.221,-0.2226,-0.2227,-0.2243,-0.2261,-0.2261,-0.2265,-0.2266,0,0,-0.2174,-0.216,-0.2175,-0.2179,-0.221,-0.2218,-0.2223,-0.2233,-0.2233,-0.2226,-0.2228,-0.2244,-0.2261,-0.2261,-0.2265,-0.2265,0,0,0,-0.2165,-0.2157,-0.2184,-0.2178,-0.2198,-0.222,-0.2226,-0.2233,-0.2245,-0.2228,-0.2244,-0.2261,-0.2261,-0.2265,-0.2265,-0.2365,0,0,0,-0.2162,-0.2152,-0.2182,-0.2173,-0.2199,-0.2226,-0.2226,-0.2244,-0.2246,-0.2244,-0.2261,-0.2261,-0.2265,-0.2265,-0.2362,-0.2393,0,0,0,-0.2151,-0.215,-0.2163,-0.2172,-0.2206,-0.2227,-0.2239,-0.2245,-0.2255,-0.2261,-0.2261,-0.2265,-0.2265,-0.2359,-0.2388,-0.2459,0,0,0,-0.2126,-0.2165,-0.2163,-0.2211,-0.2205,-0.2269,-0.224,-0.2277,-0.2289,-0.2261,-0.2265,-0.2265,-0.2358,-0.2385,-0.2456,-0.2503,-0.2524,0,0,-0.2165,-0.2169,-0.22,-0.2201,-0.2273,-0.2258,-0.233,-0.2328,-0.2281,-0.2254,-0.2255,-0.2363,-0.2388,-0.2458,-0.2526,-0.2546,0,0,0,-0.2206,-0.2223,-0.2246,-0.2286,-0.2325,-0.2369,-0.2369,-0.2363,-0.2355,-0.229,-0.2343,-0.2354,-0.2397,-0.2417,-0.2433,-0.2324,-0.2267,-0.2267,-0.2267,-0.2214,-0.2252,-0.2304,-0.2352,-0.2397,-0.2443,-0.2474,-0.2457,-0.2409,-0.2413,-0.2422,-0.2521,-0.2542,-0.2555,-0.2442,-0.2411,-0.2412,-0.2412,-0.2412,-0.2244,-0.2259,-0.2332,-0.2384,-0.2448,-0.2498,-0.2558,-0.2549,-0.2572,-0.2495,-0.2533,-0.2502,-0.2578,-0.2451,-0.2418,-0.2417,-0.2416,-0.2416,-0.2415,-0.22,-0.2215,-0.2259,-0.2353,-0.2446,-0.2526,-0.2639,-0.2651,-0.264,-0.2681,-0.2693,-0.2691,-0.2592,-0.2701,-0.2702,-0.2702,-0.2702,-0.2703,-0.2703,-0.2112,-0.217,-0.2216,-0.232,-0.2406,-0.2524,-0.2672,-0.2746,-0.2811,-0.2792,-0.2793,-0.2608,-0.2608,-0.2612,-0.271,-0.2709,-0.2708,-0.2707,-0.2707,-0.2026,-0.2059,-0.2134,-0.2216,-0.2424,-0.2511,-0.2707,-0.2885,-0.2974,-0.3012,-0.2798,-0.286,-0.2833,-0.2819,-0.2827,-0.2975,-0.2975,-0.2975,-0.2975,-0.1955,-0.198,-0.2075,-0.2206,-0.2388,-0.251,-0.2638,-0.275,-0.2832,-0.2797,-0.2845,-0.277,-0.2764,-0.2726,-0.2714,-0.2716,-0.2832,-0.2831,-0.2831,-0.1903,-0.1942,-0.1983,-0.2124,-0.2357,-0.2466,-0.2456,-0.2483,-0.2664,-0.281,-0.2686,-0.2692,-0.2561,-0.256,-0.2478,-0.247,-0.2464,0,0]},{"header":{"parameterUnit":"m.s-1","parameterCategory":2,"la1":30.2992,"la2":30.254,"lo1":-89.0895,"lo2":-89.0443,"dy":0.0025,"dx":0.0025,"nx":19,"ny":19,"refTime":"2026-05-10T21:00:00:Z","depth":"0","parameterNumber":3,"parameterNumberName":"V-component_of_CURRENTS"},"data":[0,0,0,-0.0526,-0.0525,-0.0439,-0.0438,-0.0284,-0.0283,0,0,0,0,0,0,0,0,0,0,0,-0.0554,-0.0554,-0.0526,-0.0525,-0.0439,-0.0438,-0.0284,-0.0283,0,0,0,0,0,0,0,0,0,0,0,-0.0554,-0.0554,-0.0554,-0.0524,-0.0439,-0.0438,-0.0285,-0.0356,0,0,0,0,0,0,0,0,0,0,-0.0443,-0.0484,-0.0554,-0.0554,-0.0524,-0.0439,-0.0438,-0.036,-0.0352,-0.0316,0,-0.0314,0,-0.0302,-0.0273,-0.0273,0,0,0,-0.0507,-0.0491,-0.0469,-0.0553,-0.0524,-0.0439,-0.0472,-0.0356,-0.0346,-0.0305,-0.0312,-0.0306,-0.0299,-0.0272,-0.0272,-0.0171,-0.0171,0,0,-0.0511,-0.0531,-0.0476,-0.0464,-0.0514,-0.0475,-0.047,-0.035,-0.0344,-0.0311,-0.0302,-0.0297,-0.0271,-0.027,-0.0171,-0.0171,0,0,0,-0.0537,-0.0535,-0.0516,-0.047,-0.0462,-0.0473,-0.0467,-0.0349,-0.0344,-0.0301,-0.0295,-0.027,-0.0269,-0.0171,-0.0171,-0.0206,0,0,0,-0.0539,-0.0551,-0.0519,-0.0528,-0.0465,-0.0412,-0.0469,-0.0352,-0.0338,-0.0296,-0.027,-0.0267,-0.0171,-0.0171,-0.0205,-0.0243,0,0,0,-0.0556,-0.0552,-0.0547,-0.053,-0.0501,-0.0414,-0.04,-0.0349,-0.0335,-0.0273,-0.0267,-0.0171,-0.0171,-0.0204,-0.0241,-0.0241,0,0,0,-0.0571,-0.0568,-0.0548,-0.0539,-0.0502,-0.045,-0.0401,-0.0353,-0.0305,-0.027,-0.0171,-0.0171,-0.0204,-0.0239,-0.024,-0.024,-0.0246,0,0,-0.0575,-0.0568,-0.0563,-0.0544,-0.0512,-0.046,-0.041,-0.0332,-0.029,-0.0204,-0.0202,-0.0205,-0.0241,-0.0241,-0.0238,-0.0243,0,0,0,-0.057,-0.0572,-0.0557,-0.0536,-0.0489,-0.0443,-0.0367,-0.0329,-0.0259,-0.0264,-0.0195,-0.0216,-0.0215,-0.0212,-0.0216,0.0,-0.0171,-0.0171,-0.0171,-0.0617,-0.0588,-0.0582,-0.0542,-0.0501,-0.0421,-0.0379,-0.0313,-0.0262,-0.0244,-0.0235,-0.0252,-0.0248,-0.0252,-0.0028,-0.0213,-0.0213,-0.0213,-0.0213,-0.0662,-0.0662,-0.062,-0.0606,-0.0539,-0.0491,-0.0385,-0.0345,-0.0281,-0.0251,-0.0248,-0.0239,-0.0258,-0.0018,-0.0215,-0.0215,-0.0214,-0.0214,-0.0214,-0.0713,-0.0704,-0.0703,-0.0687,-0.0643,-0.0556,-0.0536,-0.0436,-0.0337,-0.0325,-0.0301,-0.03,-0.0096,-0.0315,-0.0315,-0.0315,-0.0315,-0.0315,-0.0316,-0.0767,-0.0757,-0.0801,-0.077,-0.0779,-0.0744,-0.0633,-0.0582,-0.0446,-0.0354,-0.0353,-0.0071,-0.0283,-0.0287,-0.0318,-0.0318,-0.0317,-0.0317,-0.0317,-0.0802,-0.0824,-0.0908,-0.0943,-0.0972,-0.0996,-0.0867,-0.0716,-0.0609,-0.0536,-0.0099,-0.0351,-0.0341,-0.0337,-0.0342,-0.0385,-0.0385,-0.0385,-0.0385,-0.0845,-0.0853,-0.1017,-0.1121,-0.1178,-0.1127,-0.112,-0.0877,-0.0396,-0.0117,-0.0002,0.0061,0.0054,0.0093,0.0087,0.0093,0.0162,0.0163,0.0164,-0.088,-0.0942,-0.1077,-0.1198,-0.1284,-0.128,-0.126,-0.0955,-0.0179,0.0211,0.0304,0.0281,0.04,0.0371,0.0451,0.0426,0.0441,0,0]}],[{"header":{"parameterUnit":"m.s-1","parameterCategory":2,"la1":30.2992,"la2":30.254,"lo1":-89.0895,"lo2":-89.0443,"dy":0.0025,"dx":0.0025,"nx":19,"ny":19,"refTime":"2026-05-10T21:00:00:Z","depth":"2","parameterNumber":2,"parameterNumberName":"U-component_of_CURRENTS"},"data":[0,0,0,-0.1882,-0.1883,-0.196,-0.1961,-0.2008,-0.2008,0,0,0,0,0,0,0,0,0,0,0,-0.1882,-0.1883,-0.1881,-0.1883,-0.196,-0.1961,-0.2007,-0.2008,0,0,0,0,0,0,0,0,0,0,0,-0.1882,-0.1883,-0.1884,-0.1883,-0.196,-0.1961,-0.2007,-0.1966,0,0,0,0,0,0,0,0,0,0,-0.1899,-0.1904,-0.1883,-0.1884,-0.1883,-0.196,-0.1961,-0.1965,-0.1968,-0.1952,0,-0.1978,0,-0.1973,-0.2008,-0.2008,0,0,0,-0.1899,-0.1901,-0.1911,-0.1884,-0.1884,-0.196,-0.193,-0.1967,-0.1972,-0.1957,-0.1979,-0.198,-0.1974,-0.2008,-0.2008,-0.2046,-0.2047,0,0,-0.1895,-0.1902,-0.1909,-0.1914,-0.1921,-0.1927,-0.1932,-0.1971,-0.1987,-0.1979,-0.1981,-0.1975,-0.2008,-0.2008,-0.2046,-0.2046,0,0,0,-0.1872,-0.1899,-0.1911,-0.1913,-0.192,-0.1929,-0.1935,-0.1986,-0.1988,-0.1981,-0.1975,-0.2008,-0.2008,-0.2045,-0.2046,-0.2168,0,0,0,-0.187,-0.1884,-0.1909,-0.1914,-0.192,-0.196,-0.1949,-0.1986,-0.1989,-0.1975,-0.2008,-0.2008,-0.2045,-0.2046,-0.2163,-0.2194,0,0,0,-0.1876,-0.1883,-0.1896,-0.1915,-0.1936,-0.1959,-0.1965,-0.1988,-0.1984,-0.2008,-0.2008,-0.2045,-0.2046,-0.216,-0.2188,-0.2264,0,0,0,-0.1874,-0.1909,-0.1897,-0.1936,-0.1935,-0.1984,-0.1965,-0.2015,-0.2044,-0.2008,-0.2045,-0.2046,-0.2159,-0.2184,-0.2259,-0.2217,-0.2233,0,0,-0.1911,-0.1915,-0.1935,-0.1924,-0.1987,-0.1974,-0.2047,-0.2079,-0.2046,-0.203,-0.2032,-0.2165,-0.2188,-0.2263,-0.2269,-0.2284,0,0,0,-0.194,-0.1957,-0.198,-0.2008,-0.2035,-0.2087,-0.2093,-0.2115,-0.2148,-0.2061,-0.2149,-0.2158,-0.2203,-0.2167,-0.2179,-0.205,-0.205,-0.205,-0.205,-0.1979,-0.1989,-0.2042,-0.2065,-0.2104,-0.2166,-0.2224,-0.224,-0.22,-0.2235,-0.2247,-0.2367,-0.2331,-0.2339,-0.2245,-0.2245,-0.2246,-0.2246,-0.2246,-0.2002,-0.2006,-0.2069,-0.2115,-0.2179,-0.2236,-0.2324,-0.2344,-0.2411,-0.2342,-0.2381,-0.2282,-0.2359,-0.2256,-0.2254,-0.2253,-0.2252,-0.2251,-0.225,-0.1964,-0.1974,-0.2015,-0.2091,-0.2211,-0.2294,-0.2439,-0.2484,-0.2498,-0.2553,-0.2498,-0.2495,-0.2447,-0.2578,-0.2578,-0.2579,-0.2579,-0.2579,-0.258,-0.1883,-0.1936,-0.1984,-0.2083,-0.2179,-0.2312,-0.25,-0.2587,-0.2638,-0.2607,-0.2606,-0.2478,-0.2467,-0.2465,-0.2587,-0.2586,-0.2585,-0.2584,-0.2584,-0.1798,-0.1832,-0.1897,-0.1986,-0.2197,-0.2261,-0.2491,-0.2646,-0.276,-0.2769,-0.2642,-0.2638,-0.2591,-0.2578,-0.2577,-0.2721,-0.2721,-0.2721,-0.2721,-0.1732,-0.1756,-0.1843,-0.1971,-0.2134,-0.2241,-0.231,-0.2372,-0.2499,-0.2442,-0.2453,-0.2348,-0.2351,-0.2282,-0.2276,-0.2264,-0.2327,-0.2326,-0.2325,-0.1684,-0.1722,-0.1759,-0.1888,-0.2098,-0.2142,-0.2036,-0.1959,-0.2077,-0.2298,-0.2273,-0.2716,-0.259,-0.2583,-0.2493,-0.2478,-0.2465,0,0]},{"header":{"parameterUnit":"m.s-1","parameterCategory":2,"la1":30.2992,"la2":30.254,"lo1":-89.0895,"lo2":-89.0443,"dy":0.0025,"dx":0.0025,"nx":19,"ny":19,"refTime":"2026-05-10T21:00:00:Z","depth":"2","parameterNumber":3,"parameterNumberName":"V-component_of_CURRENTS"},"data":[0,0,0,-0.0325,-0.0324,-0.0247,-0.0247,-0.0116,-0.0115,0,0,0,0,0,0,0,0,0,0,0,-0.0366,-0.0366,-0.0325,-0.0324,-0.0247,-0.0247,-0.0116,-0.0115,0,0,0,0,0,0,0,0,0,0,0,-0.0366,-0.0366,-0.0366,-0.0323,-0.0247,-0.0247,-0.0117,-0.0181,0,0,0,0,0,0,0,0,0,0,-0.0258,-0.0311,-0.0366,-0.0366,-0.0323,-0.0248,-0.0247,-0.0184,-0.0177,-0.0144,0,-0.0148,0,-0.0124,-0.0106,-0.0106,0,0,0,-0.0316,-0.0317,-0.0288,-0.0366,-0.0322,-0.0248,-0.028,-0.018,-0.0172,-0.0134,-0.0146,-0.014,-0.0122,-0.0105,-0.0105,-0.0027,-0.0027,0,0,-0.0321,-0.0353,-0.0294,-0.0283,-0.0322,-0.0282,-0.0277,-0.0175,-0.0179,-0.0145,-0.0137,-0.012,-0.0104,-0.0103,-0.0027,-0.0027,0,0,0,-0.0338,-0.0357,-0.033,-0.0289,-0.0275,-0.028,-0.0275,-0.0184,-0.0174,-0.0135,-0.0118,-0.0104,-0.0102,-0.0027,-0.0027,-0.0073,0,0,0,-0.034,-0.0366,-0.0333,-0.0351,-0.0278,-0.0234,-0.0286,-0.0181,-0.0168,-0.0119,-0.0104,-0.0101,-0.0027,-0.0027,-0.0072,-0.0108,0,0,0,-0.0366,-0.0369,-0.0364,-0.0353,-0.032,-0.0236,-0.0219,-0.0178,-0.0157,-0.0106,-0.01,-0.0026,-0.0027,-0.007,-0.0105,-0.0108,0,0,0,-0.0394,-0.0393,-0.0366,-0.0358,-0.0322,-0.0264,-0.022,-0.018,-0.0142,-0.0103,-0.0027,-0.0027,-0.007,-0.0103,-0.0106,-0.0108,-0.0115,0,0,-0.0402,-0.0395,-0.0387,-0.036,-0.0329,-0.0273,-0.0228,-0.0168,-0.0134,-0.0056,-0.0054,-0.0072,-0.0105,-0.0107,-0.0127,-0.0134,0,0,0,-0.0395,-0.0399,-0.0386,-0.0361,-0.0308,-0.0267,-0.0192,-0.0167,-0.0121,-0.0113,-0.0066,-0.0085,-0.0085,-0.0082,-0.0088,-0.0029,-0.0028,-0.0028,-0.0028,-0.0463,-0.0421,-0.042,-0.0368,-0.0327,-0.0253,-0.0223,-0.0173,-0.0125,-0.0124,-0.0118,-0.0147,-0.0145,-0.0149,-0.0102,-0.0102,-0.0103,-0.0103,-0.0103,-0.0508,-0.0504,-0.046,-0.0447,-0.0382,-0.0338,-0.0243,-0.0216,-0.0173,-0.0147,-0.0143,-0.0126,-0.0158,-0.0106,-0.0106,-0.0105,-0.0105,-0.0104,-0.0104,-0.0562,-0.055,-0.0551,-0.0533,-0.0504,-0.042,-0.0414,-0.0328,-0.0239,-0.0234,-0.0207,-0.0206,-0.0177,-0.0226,-0.0226,-0.0226,-0.0226,-0.0226,-0.0227,-0.0614,-0.0605,-0.0655,-0.0627,-0.0645,-0.0618,-0.0524,-0.0479,-0.0354,-0.0269,-0.0268,-0.0188,-0.0184,-0.0183,-0.0229,-0.0229,-0.0229,-0.0228,-0.0228,-0.0648,-0.0671,-0.0758,-0.0801,-0.084,-0.0864,-0.0748,-0.0609,-0.0514,-0.0443,-0.027,-0.0268,-0.0252,-0.0246,-0.0246,-0.0306,-0.0306,-0.0306,-0.0306,-0.069,-0.0699,-0.0868,-0.0977,-0.1034,-0.0989,-0.0979,-0.0758,-0.0499,-0.0341,-0.034,-0.0316,-0.0312,-0.0296,-0.029,-0.029,-0.0361,-0.0361,-0.0361,-0.0727,-0.0792,-0.0928,-0.105,-0.1138,-0.1128,-0.1099,-0.082,-0.0427,-0.0364,-0.0357,-0.0308,-0.0266,-0.0262,-0.0231,-0.0224,-0.022,0,0]}],[{"header":{"parameterUnit":"m.s-1","parameterCategory":2,"la1":30.2992,"la2":30.254,"lo1":-89.0895,"lo2":-89.0443,"dy":0.0025,"dx":0.0025,"nx":19,"ny":19,"refTime":"2026-05-10T21:00:00:Z","depth":"4","parameterNumber":2,"parameterNumberName":"U-component_of_CURRENTS"},"data":[0,0,0,-0.0749,-0.0751,-0.0789,-0.0788,-0.0785,-0.0785,0,0,0,0,0,0,0,0,0,0,0,-0.0686,-0.0686,-0.0749,-0.0751,-0.0789,-0.0788,-0.0785,-0.0785,0,0,0,0,0,0,0,0,0,0,0,-0.0686,-0.0686,-0.0686,-0.0752,-0.0789,-0.0788,-0.0785,-0.076,0,0,0,0,0,0,0,0,0,0,-0.0726,-0.0669,-0.0686,-0.0686,-0.0752,-0.0789,-0.0788,-0.0759,-0.0761,-0.0765,0,-0.076,0,-0.0811,-0.0787,-0.0787,0,0,0,-0.0713,-0.0667,-0.0713,-0.0686,-0.0753,-0.0789,-0.0761,-0.076,-0.0763,-0.0768,-0.0761,-0.0763,-0.0811,-0.0787,-0.0787,-0.0897,-0.0898,0,0,-0.0711,-0.0661,-0.0711,-0.0714,-0.075,-0.076,-0.0763,-0.0762,-0.0737,-0.0761,-0.0764,-0.0811,-0.0787,-0.0788,-0.0896,-0.0897,0,0,0,-0.0731,-0.0658,-0.0704,-0.0712,-0.0745,-0.0762,-0.0765,-0.0736,-0.076,-0.0764,-0.0811,-0.0788,-0.0788,-0.0895,-0.0896,-0.0935,0,0,0,-0.0728,-0.0675,-0.0702,-0.0668,-0.0746,-0.0747,-0.0738,-0.0758,-0.0763,-0.0811,-0.0788,-0.0788,-0.0894,-0.0895,-0.0932,-0.0993,0,0,0,-0.0686,-0.0671,-0.0678,-0.0666,-0.0711,-0.0749,-0.077,-0.076,-0.0793,-0.0787,-0.0788,-0.0893,-0.0895,-0.0929,-0.0987,-0.1115,0,0,0,-0.063,-0.0649,-0.0675,-0.0726,-0.0711,-0.0812,-0.0771,-0.0778,-0.0768,-0.0788,-0.0894,-0.0896,-0.0928,-0.0983,-0.111,-0.0795,0,0,0,-0.0641,-0.0647,-0.0693,-0.0723,-0.0834,-0.0805,-0.0904,-0.0838,-0.0814,-0.0881,-0.0883,-0.0933,-0.0986,-0.1114,-0.0933,0,0,0,0,-0.0694,-0.0708,-0.0753,-0.0816,-0.0895,-0.0946,-0.0916,-0.0932,-0.0934,-0.0833,-0.0969,-0.1004,-0.1082,-0.0884,-0.0907,-0.0907,-0.0907,-0.0906,-0.0906,-0.0559,-0.0679,-0.0757,-0.0887,-0.0947,-0.1022,-0.1072,-0.1087,-0.1021,-0.1031,-0.1059,-0.1222,-0.1011,-0.1064,-0.1065,-0.1065,-0.1065,-0.1065,-0.1065,-0.0561,-0.0621,-0.0754,-0.0859,-0.0966,-0.1014,-0.1181,-0.116,-0.1289,-0.1179,-0.1252,-0.0966,-0.107,-0.1069,-0.1068,-0.1068,-0.1067,-0.1067,-0.1067,-0.0447,-0.0511,-0.0574,-0.0731,-0.0848,-0.0982,-0.1127,-0.1264,-0.1325,-0.1405,-0.1209,-0.1302,-0.1275,-0.1415,-0.1415,-0.1416,-0.1417,-0.1418,-0.1418,-0.0296,-0.0401,-0.0444,-0.0622,-0.0686,-0.0818,-0.1104,-0.1134,-0.1261,-0.128,-0.1417,-0.1342,-0.1331,-0.1299,-0.1431,-0.1429,-0.1427,-0.1426,-0.1425,-0.0307,-0.0228,-0.036,-0.0417,-0.0537,-0.0661,-0.0948,-0.1033,-0.1138,-0.1095,-0.1242,-0.1247,-0.1231,-0.1224,-0.1187,-0.1291,-0.1288,-0.1284,0,-0.0215,-0.0225,-0.029,-0.0351,-0.0365,-0.0572,-0.0641,-0.0704,-0.0892,-0.099,-0.1032,-0.1199,-0.1202,-0.1171,-0.116,-0.1108,0,0,0,-0.0259,-0.0301,-0.0315,-0.0303,-0.0287,-0.0429,-0.0645,-0.0679,-0.0987,-0.077,-0.1197,-0.122,-0.0921,-0.1469,-0.1461,-0.1447,-0.1397,0,0]},{"header":{"parameterUnit":"m.s-1","parameterCategory":2,"la1":30.2992,"la2":30.254,"lo1":-89.0895,"lo2":-89.0443,"dy":0.0025,"dx":0.0025,"nx":19,"ny":19,"refTime":"2026-05-10T21:00:00:Z","depth":"4","parameterNumber":3,"parameterNumberName":"V-component_of_CURRENTS"},"data":[0,0,0,0.0156,0.0157,0.0212,0.0212,0.0252,0.0252,0,0,0,0,0,0,0,0,0,0,0,0.0149,0.015,0.0156,0.0157,0.0211,0.0212,0.0252,0.0252,0,0,0,0,0,0,0,0,0,0,0,0.0149,0.015,0.015,0.0157,0.0211,0.0212,0.0252,0.0219,0,0,0,0,0,0,0,0,0,0,0.0171,0.018,0.0149,0.015,0.0157,0.0211,0.0212,0.0218,0.0221,0.0216,0,0.0232,0,0.0233,0.0253,0.0253,0,0,0,0.0164,0.0178,0.0175,0.015,0.0158,0.0211,0.0189,0.022,0.0224,0.022,0.0232,0.0233,0.0234,0.0253,0.0253,0.0266,0.0266,0,0,0.0161,0.0174,0.0173,0.0178,0.018,0.0187,0.019,0.0223,0.024,0.0232,0.0234,0.0234,0.0253,0.0253,0.0266,0.0266,0,0,0,0.0147,0.0172,0.017,0.0176,0.0184,0.0188,0.0192,0.0239,0.0234,0.0235,0.0235,0.0253,0.0254,0.0266,0.0266,0.0232,0,0,0,0.0146,0.0163,0.0169,0.0179,0.0183,0.0219,0.0208,0.0232,0.0235,0.0235,0.0253,0.0254,0.0266,0.0266,0.0233,0.0188,0,0,0,0.0145,0.0163,0.0168,0.0179,0.0196,0.0218,0.0217,0.0233,0.0234,0.0253,0.0254,0.0266,0.0266,0.0233,0.0191,0.0189,0,0,0,0.0156,0.0137,0.0169,0.0139,0.0195,0.0162,0.0216,0.0224,0.0236,0.0254,0.0266,0.0266,0.0234,0.0193,0.0191,0.0043,0,0,0,0.0121,0.0135,0.0106,0.0133,0.0076,0.0155,0.0122,0.0181,0.0236,0.0255,0.0255,0.0232,0.0191,0.019,0.0045,0,0,0,0,0.0084,0.007,0.0056,0.004,0.0035,0.0048,0.011,0.0155,0.0223,0.0243,0.0242,0.0217,0.0217,0.0136,0.0266,0.0266,0.0266,0.0266,0.0266,0.0097,0.005,-0.0012,-0.0055,-0.0061,-0.0015,0.0017,0.0097,0.0161,0.0207,0.0197,0.0178,0.0092,0.0223,0.0223,0.0223,0.0222,0.0222,0.0222,0.0018,-0.0034,-0.0073,-0.0144,-0.0134,-0.0125,-0.0056,0.0024,0.0107,0.0166,0.017,0.0114,0.0219,0.022,0.022,0.0221,0.0221,0.0221,0.0221,0.0009,-0.0033,-0.0068,-0.0172,-0.0197,-0.0174,-0.0205,-0.008,0.0062,0.0079,0.0029,0.0153,0.0146,0.011,0.011,0.011,0.011,0.011,0.0109,0.0024,-0.0036,-0.0118,-0.0211,-0.0268,-0.0305,-0.0267,-0.0265,-0.0124,-0.0048,0.0082,0.0141,0.0144,0.014,0.0106,0.0107,0.0107,0.0108,0.0108,-0.0053,-0.0022,-0.0183,-0.0263,-0.0427,-0.0456,-0.0458,-0.0436,-0.0407,-0.0359,-0.0109,-0.0097,-0.0101,-0.0092,-0.0104,-0.0212,-0.0214,-0.0216,0,-0.0054,-0.0073,-0.024,-0.0411,-0.0541,-0.057,-0.0631,-0.0626,-0.0429,-0.0336,-0.0353,-0.0064,-0.0056,-0.0057,-0.0052,-0.0066,0,0,0,-0.0119,-0.0166,-0.0291,-0.0445,-0.0585,-0.0634,-0.0632,-0.0598,-0.043,-0.0564,-0.0268,-0.0254,-0.0291,0.0097,0.0119,0.0124,0.0118,0,0]}]]